Weather History for Pueblo, CO

Change the Weather History Date:

Monday, November 21, 2011

  Actual Average Record
Temperature  
Mean Temperature 35 °F 37 °F  
Max Temperature 52 °F 53 °F 78 °F (1974)
Min Temperature 17 °F 20 °F -1 °F (1906)
Degree Days  
Heating Degree Days 30 28  
Month to date heating degree days 497 496  
Since 1 July heating degree days 887 1006  
Cooling Degree Days 0 0  
Month to date cooling degree days 0 0  
Year to date cooling degree days 1259 897  
Moisture  
Dew Point 20 °F    
Average Humidity 57    
Maximum Humidity 84    
Minimum Humidity 30    
Precipitation  
Precipitation 0.00 in 0.01 in 0.24 in (1963)
Month to date precipitation 0.37 0.33  
Year to date precipitation 8.38 12.05  
Snow  
Snow 0.00 in 0.20 in 2.70 in (1992)
Month to date snowfall 2.7 2.8  
Since 1 July snowfall 3.0 4.4  
Since 1 September snowfall 3.0 4.4  
Snow Depth 0.00 in    
Sea Level Pressure  
Sea Level Pressure 30.06 in    
Wind  
Wind Speed 5 mph (WNW)    
Max Wind Speed 13 mph    
Max Gust Speed 17 mph    
Visibility 10 miles    
Events      
T = Trace of Precipitation, MM = Missing Value Source: NWS Daily Summary

Daily Weather History Graph

Daily Weather History Graph

Search for Another Location

Airport:

Trip Planner

Search our weather history database for the weather conditions in past years. The results will help you decide how hot, cold, wet, or windy it might be!

Date:

Astronomy

Nov. 21, 2011 Rise Set
Actual Time 6:45 AM MST 4:41 PM MST
Civil Twilight 6:16 AM MST 5:10 PM MST
Nautical Twilight 5:44 AM MST 5:42 PM MST
Astronomical Twilight 5:13 AM MST 6:14 PM MST
Moon 2:29 AM MST (11/21) 2:03 PM MST (11/21)
Length of Visible Light 10h 53m
Length of Day
9h 56m
Waning Crescent, 17% of the Moon is Illuminated
Nov 21
Waning Crescent
Nov 24
New
Dec 2
First Quarter
Dec 10
Full
Dec 17
Last Quarter

Hourly Weather History & Observations

Time (MST) Temp. Windchill Dew Point Humidity Pressure Visibility Wind Dir Wind Speed Gust Speed Precip Events Conditions
12:53 AM 19.9 °F 13.4 °F 15.1 °F 81% 30.12 in 10.0 mi West 4.6 mph - N/A   Clear
1:53 AM 19.9 °F 12.1 °F 15.1 °F 81% 30.10 in 10.0 mi West 5.8 mph - N/A   Clear
2:53 AM 18.0 °F - 14.0 °F 84% 30.10 in 10.0 mi Calm Calm - N/A   Mostly Cloudy
3:53 AM 19.9 °F 11.1 °F 15.1 °F 81% 30.09 in 10.0 mi West 6.9 mph - N/A   Clear
4:53 AM 19.9 °F 14.9 °F 15.1 °F 81% 30.11 in 10.0 mi NNW 3.5 mph - N/A   Clear
5:53 AM 21.0 °F 14.6 °F 16.0 °F 81% 30.12 in 10.0 mi West 4.6 mph - N/A   Clear
6:53 AM 19.0 °F 11.1 °F 15.1 °F 85% 30.14 in 10.0 mi WNW 5.8 mph - N/A   Clear
7:53 AM 21.9 °F 17.2 °F 17.1 °F 82% 30.14 in 10.0 mi WSW 3.5 mph - N/A   Clear
8:53 AM 28.9 °F 25.2 °F 21.0 °F 72% 30.13 in 10.0 mi West 3.5 mph - N/A   Clear
9:53 AM 33.1 °F 27.7 °F 24.1 °F 70% 30.10 in 10.0 mi North 5.8 mph - N/A   Clear
10:53 AM 34.0 °F - 24.1 °F 67% 30.12 in 10.0 mi Calm Calm - N/A   Clear
11:53 AM 37.9 °F - 24.1 °F 57% 30.06 in 10.0 mi Calm Calm - N/A   Clear
12:53 PM 44.1 °F 40.8 °F 25.0 °F 47% 30.00 in 10.0 mi West 5.8 mph - N/A   Clear
1:53 PM 51.1 °F - 23.0 °F 33% 29.95 in 10.0 mi Calm Calm - N/A   Clear
2:53 PM 51.1 °F - 21.9 °F 32% 29.94 in 10.0 mi ESE 8.1 mph - N/A   Clear
3:53 PM 48.0 °F - 24.1 °F 39% 29.96 in 10.0 mi South 8.1 mph - N/A   Clear
4:53 PM 42.1 °F 39.2 °F 21.9 °F 45% 30.00 in 10.0 mi WNW 4.6 mph - N/A   Clear
5:53 PM 35.6 °F 29.2 °F 21.2 °F 56% 29.95 in 10.0 mi NW 8.1 mph - N/A   Clear
6:53 PM 36.0 °F 29.0 °F 21.0 °F 55% 30.04 in 10.0 mi NW 9.2 mph - N/A   Clear
7:53 PM 37.0 °F 30.4 °F 23.0 °F 57% 30.04 in 10.0 mi WNW 9.2 mph - N/A   Clear
8:53 PM 34.0 °F 26.0 °F 21.9 °F 61% 30.06 in 10.0 mi East 10.4 mph - N/A   Clear
9:53 PM 30.9 °F 26.2 °F 21.9 °F 69% 30.08 in 10.0 mi North 4.6 mph - N/A   Clear
10:53 PM 30.0 °F 24.1 °F 21.0 °F 69% 30.09 in 10.0 mi NNW 5.8 mph - N/A   Clear
11:53 PM 30.2 °F 24.3 °F 21.2 °F 69% 30.06 in 10.0 mi NW 5.8 mph - N/A   Clear